Greenville, ME

8:27 AM EST on November 14, 2019 (GMT -0500)
Greenville

Weather History for KGNR - September, 2019

Change the Weather History Date:

Sunday, September 22, 2019

  Actual Average (WUND) Record (WUND)
Temperature  
Mean Temperature 66 °F -  
Max Temperature 79 °F - - (-1)
Min Temperature 55 °F - - (-1)
Cooling Degree Days 2    
Growing Degree Days 16 (Base 50)    
Moisture  
Dew Point 57 °F    
Average Humidity 71    
Maximum Humidity 90    
Minimum Humidity 48    
Precipitation  
Precipitation 0.00 in - - ()
Sea Level Pressure  
Sea Level Pressure 30.01 in    
Wind  
Wind Speed 2 mph ()    
Max Wind Speed 7 mph    
Max Gust Speed 16 mph    
Averages and records for this station are not official NWS values.
T = Trace of Precipitation, MM = Missing Value Source: Averaged Metar Reports

Daily Weather History Graph

Daily Weather History Graph

Search for Another Location

Airport or City:

Astronomy

Sep. 22, 2019 Rise Set
Actual Time 6:25 AM EDT 6:36 PM EDT
Civil Twilight 5:55 AM EDT 7:05 PM EDT
Nautical Twilight 5:20 AM EDT 7:40 PM EDT
Astronomical Twilight 4:44 AM EDT 8:16 PM EDT
Moon 11:47 PM EDT (9/22) 2:47 PM EDT (9/22)
Length of Visible Light 13h 10m
Length of Day
12h 11m
Last Quarter, 44% of the Moon is Illuminated
Sep 22
Last Quarter
Sep 28
New
Oct 5
First Quarter
Oct 13
Full
Oct 21
Last Quarter

Hourly Weather History & Observations

Time (EDT) Temp. Dew Point Humidity Pressure Visibility Wind Dir Wind Speed Gust Speed Precip Events Conditions
12:56 AM 55.9 °F 51.1 °F 84% 30.16 in - Calm Calm - N/A   Unknown
1:56 AM 57.0 °F 50.0 °F 77% 30.14 in - Calm Calm - N/A   Unknown
2:56 AM 55.0 °F 51.1 °F 86% 30.13 in - Calm Calm - N/A   Unknown
3:56 AM 57.9 °F 54.0 °F 87% 30.12 in - Calm Calm - N/A   Unknown
4:56 AM 55.0 °F 52.0 °F 89% 30.12 in - Calm Calm - N/A   Unknown
5:56 AM 55.9 °F 53.1 °F 90% 30.11 in - Calm Calm - N/A   Unknown
6:56 AM 55.9 °F 53.1 °F 90% 30.11 in - Calm Calm - N/A   Unknown
7:56 AM 62.1 °F 55.9 °F 80% 30.10 in - Calm Calm - N/A   Unknown
8:56 AM 64.9 °F 57.0 °F 75% 30.09 in - SSW 3.5 mph - N/A   Unknown
9:56 AM 70.0 °F 57.9 °F 65% 30.06 in - Variable 3.5 mph - N/A   Unknown
10:56 AM 73.9 °F 59.0 °F 59% 30.06 in - Calm Calm - N/A   Unknown
11:56 AM 75.9 °F 57.0 °F 52% 30.03 in - Variable 4.6 mph - N/A   Unknown
12:56 PM 78.1 °F 57.0 °F 48% 30.00 in - Variable 6.9 mph - N/A   Unknown
1:56 PM 78.1 °F 57.0 °F 48% 29.96 in - Variable 5.8 mph - N/A   Unknown
2:56 PM 78.1 °F 59.0 °F 52% 29.94 in - SSW 6.9 mph - N/A   Unknown
3:56 PM 77.0 °F 59.0 °F 54% 29.92 in - Variable 6.9 mph 16.1 mph N/A   Unknown
4:56 PM 75.9 °F 60.1 °F 58% 29.92 in - Variable 4.6 mph - N/A   Unknown
5:56 PM 73.0 °F 60.1 °F 64% 29.90 in - SSW 5.8 mph - N/A   Unknown
6:56 PM 70.0 °F 60.1 °F 71% 29.90 in - SSW 4.6 mph - N/A   Unknown
7:56 PM 71.1 °F 60.1 °F 68% 29.88 in - South 4.6 mph - N/A   Unknown
9:56 PM 69.1 °F 60.1 °F 73% 29.85 in - South 3.5 mph - N/A   Unknown
10:56 PM 66.9 °F 59.0 °F 76% 29.82 in - Calm Calm - N/A   Unknown
11:56 PM 68.0 °F 60.1 °F 76% 29.80 in - SSW 3.5 mph - N/A   Unknown